EW0625 Weather Reports


time (UTC)temp
F
wind
direction
speed
knots
gust
knots
rain 1hr
in
rain 24hr
in
rain mn
in
humidity
%
barometer
mb
20260503185048 61 248 6.1 13.9 0.00 0.00 0.00 47 1010.5
20260503184522 61 209 5.2 13.9 0.00 0.00 0.00 49 1010.6
20260503184050 61 286 3.5 11.3 0.00 0.00 0.00 48 1010.6
20260503183527 60 186 4.3 13.9 0.00 0.00 0.00 47 1010.8
20260503183047 61 245 2.6 13.9 0.00 0.00 0.00 51 1010.6
20260503182530 61 298 3.5 18.2 0.00 0.00 0.00 48 1010.9
20260503182047 61 222 5.2 18.2 0.00 0.00 0.00 48 1011.0
20260503181528 60 295 5.2 14.8 0.00 0.00 0.00 51 1011.0
20260503181008 60 281 7.0 14.8 0.00 0.00 0.00 48 1011.2
20260503180528 60 236 5.2 14.8 0.00 0.00 0.00 44 1011.3
20260503180006 60 161 5.2 17.4 0.00 0.00 0.00 48 1011.4
20260503175525 61 253 7.0 17.4 0.00 0.00 0.00 46 1011.3
20260503175012 60 317 4.3 13.0 0.00 0.00 0.00 46 1011.4
20260503174547 60 273 2.6 14.8 0.00 0.00 0.00 50 1011.5
20260503174011 59 263 7.0 20.0 0.00 0.00 0.00 49 1011.6
20260503173544 59 262 4.3 20.0 0.00 0.00 0.00 51 1011.8
20260503173011 59 215 6.1 13.0 0.00 0.00 0.00 48 1011.8
20260503172544 59 241 4.3 15.6 0.00 0.00 0.00 50 1011.8
20260503172056 59 232 7.8 15.6 0.00 0.00 0.00 50 1012.0
20260503171534 59 275 4.3 16.5 0.00 0.00 0.00 51 1012.1
20260503171011 59 263 7.0 16.5 0.00 0.00 0.00 48 1012.1
20260503170528 59 282 2.6 13.0 0.00 0.00 0.00 54 1012.2
20260503150522 52 262 1.7 11.3 0.00 0.00 0.00 56 1013.4
20260503131043 50 248 4.3 14.8 0.00 0.00 0.00 58 1013.8
20260503130519 49 279 7.0 14.8 0.00 0.00 0.00 58 1013.8
20260503110553 37 257 0.0 4.3 0.00 0.00 0.00 74 1013.7
20260503081559 33 303 0.0 0.0 0.00 0.00 0.00 89 1014.5
20260503081035 33 303 0.0 0.0 0.00 0.00 0.00 89 1014.6
20260503080553 32 303 0.0 0.0 0.00 0.00 0.00 89 1014.5
20260503072513 32 303 0.0 0.0 0.00 0.00 0.00 90 1014.7
20260503072052 32 303 0.0 0.0 0.00 0.00 0.00 90 1014.8
20260503071521 32 303 0.0 0.0 0.00 0.00 0.00 90 1014.7
20260503071054 32 303 0.0 0.0 0.00 0.00 0.00 90 1014.8
20260503070535 31 303 0.0 0.0 0.00 0.00 0.00 90 1014.9
20260503055101 31 303 0.0 0.0 0.00 0.00 0.00 90 1015.3
20260503055001 31 303 0.0 0.0 0.00 0.00 0.00 90 1015.3
20260503054533 31 303 0.0 0.0 0.00 0.00 0.00 90 1015.4
20260503054059 31 303 0.0 0.0 0.00 0.00 0.00 89 1015.4
20260503054001 31 303 0.0 0.0 0.00 0.00 0.00 89 1015.4
20260503053521 31 303 0.0 0.0 0.00 0.00 0.00 89 1015.4
20260503053057 31 303 0.0 0.0 0.00 0.00 0.00 89 1015.5
20260503052544 31 303 0.0 0.0 0.00 0.00 0.00 89 1015.5
20260503052054 31 303 0.0 0.0 0.00 0.00 0.00 89 1015.5
20260503051536 31 303 0.0 0.0 0.00 0.00 0.00 89 1015.6
20260503051054 31 303 0.0 0.0 0.00 0.00 0.00 88 1015.6
20260503050536 31 303 0.0 0.0 0.00 0.00 0.00 88 1015.6
20260503050054 31 303 0.0 0.0 0.00 0.00 0.00 88 1015.6
20260503045535 31 303 0.0 0.0 0.00 0.00 0.00 88 1015.6
20260503045013 31 303 0.0 0.0 0.00 0.00 0.00 88 1015.7
20260503044535 31 303 0.0 0.0 0.00 0.00 0.00 89 1015.7
20260503044017 31 303 0.0 0.0 0.00 0.00 0.00 88 1015.6
20260503043549 31 303 0.0 0.0 0.00 0.00 0.00 88 1015.7
20260503043019 31 303 0.0 0.0 0.00 0.00 0.00 88 1015.7
20260503042546 31 303 0.0 0.0 0.00 0.00 0.00 88 1015.7
20260503042024 31 303 0.0 0.0 0.00 0.00 0.00 88 1015.6
20260503041546 31 303 0.0 0.0 0.00 0.00 0.00 88 1015.7
20260503041027 31 303 0.0 0.0 0.00 0.00 0.00 88 1015.7
20260503040558 31 303 0.0 0.0 0.00 0.00 0.00 87 1015.7
20260503040038 32 303 0.0 0.0 0.00 0.00 0.00 87 1015.7
20260503035549 32 303 0.0 0.0 0.00 0.00 0.00 87 1015.7
20260503035030 32 303 0.0 0.0 0.00 0.00 0.00 86 1015.8
20260503034554 32 303 0.0 0.0 0.00 0.00 0.00 86 1015.8
20260503034036 32 303 0.0 0.0 0.00 0.00 0.00 86 1015.9
20260503033551 32 303 0.0 0.0 0.00 0.00 0.00 86 1015.8
20260503033034 32 303 0.0 0.0 0.00 0.00 0.00 86 1015.9
20260503032551 33 303 0.0 0.0 0.00 0.00 0.00 85 1015.9
20260503032029 33 303 0.0 0.0 0.00 0.00 0.00 85 1015.9
20260503031503 33 303 0.0 0.0 0.00 0.00 0.00 84 1016.0
20260503031044 33 303 0.0 0.0 0.00 0.00 0.00 84 1015.9
20260503030519 33 303 0.0 0.0 0.00 0.00 0.00 83 1016.0
20260503030055 34 303 0.0 0.0 0.00 0.00 0.00 83 1016.0
20260503025519 34 303 0.0 0.0 0.00 0.00 0.00 82 1015.9
20260503025055 34 303 0.0 0.0 0.00 0.00 0.00 82 1015.9
20260503024521 34 303 0.0 0.0 0.00 0.00 0.00 81 1016.0
20260503024004 35 303 0.0 0.0 0.00 0.00 0.00 81 1016.1
20260503023527 35 303 0.0 0.0 0.00 0.00 0.00 81 1016.0
20260503023110 35 303 0.0 0.0 0.00 0.00 0.00 80 1016.0
20260503023001 35 303 0.0 0.0 0.00 0.00 0.00 80 1016.0
20260503022523 36 303 0.0 0.0 0.00 0.00 0.00 80 1016.0
20260503022059 36 303 0.0 0.0 0.00 0.00 0.00 79 1016.0
20260503022001 36 303 0.0 0.0 0.00 0.00 0.00 79 1016.0
20260503021542 36 303 0.0 0.0 0.00 0.00 0.00 77 1016.0
20260503021059 36 303 0.0 0.0 0.00 0.00 0.00 76 1016.0
20260503021002 36 303 0.0 0.0 0.00 0.00 0.00 76 1016.0
20260503020540 37 303 0.0 0.0 0.00 0.00 0.00 76 1016.0
20260503020019 37 303 0.0 0.0 0.00 0.00 0.00 74 1016.0
20260503015546 38 303 0.0 0.0 0.00 0.00 0.00 73 1015.9
20260503015022 38 303 0.0 0.0 0.00 0.00 0.00 72 1015.9
20260503014535 38 303 0.0 0.0 0.00 0.00 0.00 69 1015.8
20260503014011 39 303 0.0 0.0 0.00 0.00 0.00 72 1015.7
20260503013531 39 303 0.0 0.0 0.00 0.00 0.00 74 1015.7
20260503013012 40 303 0.0 0.0 0.00 0.00 0.00 74 1015.7
20260503012535 40 303 0.0 0.0 0.00 0.00 0.00 70 1015.7
20260503012014 41 303 0.0 0.0 0.00 0.00 0.00 68 1015.7
20260503011547 42 303 0.0 0.0 0.00 0.00 0.00 70 1015.7
20260503011021 42 303 0.0 0.0 0.00 0.00 0.00 66 1015.7
20260503010559 43 303 0.0 0.0 0.00 0.00 0.00 59 1015.6
20260503010507 43 303 0.0 0.0 0.00 0.00 0.00 58 1015.6
20260503010048 43 303 0.0 0.0 0.00 0.00 0.00 56 1015.6
20260503005503 44 303 0.0 0.0 0.00 0.00 0.00 54 1015.6
20260503005036 44 303 0.0 0.0 0.00 0.00 0.00 53 1015.5
20260503004508 44 303 0.0 0.0 0.00 0.00 0.00 53 1015.4
20260503004039 45 303 0.0 1.7 0.00 0.00 0.00 53 1015.5
20260503003517 45 303 0.0 3.5 0.00 0.00 0.00 52 1015.4
20260503003055 45 303 0.0 3.5 0.00 0.00 0.00 52 1015.5
20260503002533 46 310 0.0 5.2 0.00 0.00 0.00 51 1015.5
20260503002015 46 311 0.0 5.2 0.00 0.00 0.00 52 1015.5
20260503001533 46 285 0.0 1.7 0.00 0.00 0.00 51 1015.4
20260503001011 46 304 0.0 2.6 0.00 0.00 0.00 49 1015.4
20260503000532 47 306 0.0 4.3 0.00 0.00 0.00 50 1015.3
20260503000051 47 310 0.9 5.2 0.00 0.00 0.00 50 1015.3
20260502235535 47 259 1.7 6.1 0.00 0.00 0.00 48 1015.3
20260502235047 48 315 0.0 7.0 0.00 0.00 0.00 48 1015.3
20260502234534 48 283 2.6 7.8 0.00 0.00 0.00 47 1015.3
20260502234057 48 318 1.7 7.8 0.00 0.00 0.00 48 1015.3
20260502233515 48 302 2.6 7.0 0.00 0.00 0.00 48 1015.3
20260502233051 48 259 2.6 6.1 0.00 0.00 0.00 48 1015.3
20260502232530 48 288 0.9 6.1 0.00 0.00 0.00 48 1015.3
20260502232017 48 317 2.6 7.8 0.00 0.00 0.00 48 1015.4
20260502231600 49 323 1.7 7.8 0.00 0.00 0.00 49 1015.4
20260502231007 49 318 2.6 6.1 0.00 0.00 0.00 49 1015.4
20260502230527 49 252 1.7 6.1 0.00 0.00 0.00 47 1015.3
20260502230011 49 304 0.9 5.2 0.00 0.00 0.00 47 1015.3
20260502225544 49 295 2.6 7.0 0.00 0.00 0.00 49 1015.4
20260502225019 49 253 0.0 7.0 0.00 0.00 0.00 49 1015.4
20260502224537 49 298 2.6 7.0 0.00 0.00 0.00 47 1015.4
20260502224015 49 288 3.5 7.0 0.00 0.00 0.00 49 1015.5
20260502223535 49 315 0.9 8.7 0.00 0.00 0.00 51 1015.5
20260502223017 48 294 1.7 8.7 0.00 0.00 0.00 50 1015.6
20260502222553 48 284 1.7 6.1 0.00 0.00 0.00 52 1015.6
20260502222012 48 282 0.9 6.1 0.00 0.00 0.00 52 1015.6
20260502221543 48 309 0.9 6.1 0.00 0.00 0.00 51 1015.6
20260502221003 48 315 0.0 7.8 0.00 0.00 0.00 53 1015.5
20260502220541 49 323 3.5 7.8 0.00 0.00 0.00 50 1015.5
20260502220012 49 323 1.7 9.6 0.00 0.00 0.00 51 1015.5
20260502215543 49 229 2.6 9.6 0.00 0.00 0.00 49 1015.6
20260502215022 48 279 0.9 8.7 0.00 0.00 0.00 52 1015.5
20260502214544 47 317 4.3 8.7 0.00 0.00 0.00 53 1015.6
20260502214022 47 286 0.0 9.6 0.00 0.00 0.00 54 1015.6
20260502213543 47 288 3.5 9.6 0.00 0.00 0.00 52 1015.6
20260502213019 47 248 0.9 8.7 0.00 0.00 0.00 50 1015.6
20260502212541 47 296 2.6 8.7 0.00 0.00 0.00 53 1015.6
20260502212019 47 291 0.0 6.1 0.00 0.00 0.00 56 1015.7
20260502211545 47 300 1.7 6.1 0.00 0.00 0.00 55 1015.7
20260502211026 47 291 0.0 4.3 0.00 0.00 0.00 56 1015.7
20260502210504 47 272 0.0 4.3 0.00 0.00 0.00 53 1015.8
20260502210044 46 316 0.9 6.1 0.00 0.00 0.00 55 1015.8
20260502205514 46 319 0.9 6.1 0.00 0.00 0.00 54 1015.8
20260502205044 46 275 2.6 6.1 0.00 0.00 0.00 53 1015.8
20260502204522 46 314 1.7 9.6 0.00 0.00 0.00 53 1015.9
20260502204006 46 317 0.9 6.1 0.00 0.00 0.00 54 1015.8
20260502203524 46 296 1.7 12.2 0.00 0.00 0.00 49 1015.9
20260502203007 47 306 3.5 12.2 0.00 0.00 0.00 50 1015.9
20260502202544 47 15 1.7 10.4 0.00 0.00 0.00 50 1015.9
20260502202056 47 327 2.6 8.7 0.00 0.00 0.00 52 1016.1
20260502201545 47 316 1.7 9.6 0.00 0.00 0.00 49 1016.1
20260502201012 47 323 3.5 9.6 0.00 0.00 0.00 51 1016.2
20260502200545 46 325 4.3 8.7 0.00 0.00 0.00 51 1016.2
20260502200100 46 291 3.5 7.8 0.00 0.00 0.00 51 1016.2
20260502200001 46 304 2.6 7.8 0.00 0.00 0.00 51 1016.2
20260502195538 46 9 2.6 7.8 0.00 0.00 0.00 50 1016.2
20260502195056 47 355 0.9 7.0 0.00 0.00 0.00 49 1016.3
20260502194538 47 299 2.6 7.0 0.00 0.00 0.00 53 1016.3
20260502194016 47 291 1.7 6.1 0.00 0.00 0.00 51 1016.4
20260502193538 47 318 0.0 7.0 0.00 0.00 0.00 54 1016.5
20260502193014 47 333 0.9 7.0 0.00 0.00 0.00 53 1016.4
20260502192537 47 336 1.7 6.1 0.00 0.00 0.00 52 1016.5
20260502192011 47 317 1.7 8.7 0.00 0.00 0.00 52 1016.5
20260502191529 47 320 2.6 8.7 0.00 0.00 0.00 53 1016.5
20260502191004 46 284 2.6 8.7 0.00 0.00 0.00 53 1016.6
20260502190524 46 266 1.7 7.8 0.00 0.00 0.00 52 1016.7
20260502190059 46 334 1.7 5.2 0.00 0.00 0.00 52 1016.8
20260502185540 46 317 1.7 7.0 0.00 0.00 0.00 52 1016.8